Location: Falniów
(50.3639°N, 19.9642°E)
Time: 21:21:15
(UTC+00:00)

COSMO-SKYMED 1 - Pass Details

Date: 18 January 2026
Orbit: 577 x 579 km, 97.9° (Epoch: 17 February)

Event Time Altitude Azimuth Distance (km) Brightness Sun altitude
Rises 04:21:27 0° 176° (S) 2,788 6.1 -20.2°
Reaches altitude 10° 04:23:38 10° 180° (S) 1,893 5.1 -19.9°
Maximum altitude 04:27:40 55° 259° (W) 701 2.4 -19.2°
Enters shadow 04:28:42 42° 310° (NW) 838 2.8 -19.1°
